Westfield, IN

11:35 AM EDT on September 28, 2016 (GMT -0400)
Indianapolis Terry

Weather History for KTYQ - November, 2011

Change the Weather History Date:

Monday, November 21, 2011

  Actual Average (KEYE) Record (KEYE)
Temperature  
Mean Temperature 44 °F 42 °F  
Max Temperature 47 °F 49 °F 65 °F (2010)
Min Temperature 41 °F 34 °F 12 °F (2014)
Degree Days  
Heating Degree Days 21 23  
Month to date heating degree days 400  
Since 1 July heating degree days 792  
Cooling Degree Days 0 0  
Month to date cooling degree days 0  
Year to date cooling degree days 1058  
Moisture  
Dew Point 41 °F    
Average Humidity 88    
Maximum Humidity 90    
Minimum Humidity 85    
Precipitation  
Precipitation 0.09 in 0.13 in 0.35 in (2015)
Month to date precipitation 2.61  
Year to date precipitation 36.62  
Sea Level Pressure  
Sea Level Pressure 30.21 in    
Wind  
Wind Speed 8 mph (ENE)    
Max Wind Speed 12 mph    
Max Gust Speed 21 mph    
Visibility 9 miles    
Events Rain    
T = Trace of Precipitation, MM = Missing Value Source: NWS Daily Summary

Daily Weather History Graph

Daily Weather History Graph

Search for Another Location

Airport or City:

Trip Planner

Search our weather history database for the weather conditions in past years. The results will help you decide how hot, cold, wet, or windy it might be!

Date:

Astronomy

Nov. 21, 2011 Rise Set
Actual Time 7:36 AM EST 5:24 PM EST
Civil Twilight 7:07 AM EST 5:53 PM EST
Nautical Twilight 6:34 AM EST 6:27 PM EST
Astronomical Twilight 6:01 AM EST 6:59 PM EST
Moon 3:14 AM EST (11/21) 2:46 PM EST (11/21)
Length of Visible Light 10h 46m
Length of Day
9h 47m
Waning Crescent, 18% of the Moon is Illuminated
Nov 21
Waning Crescent
Nov 25
New
Dec 2
First Quarter
Dec 10
Full
Dec 17
Last Quarter

Hourly Weather History & Observations

Time (EST) Temp. Windchill Dew Point Humidity Pressure Visibility Wind Dir Wind Speed Gust Speed Precip Events Conditions
12:15 AM 42.4 °F 36.5 °F 38.3 °F 85% 30.26 in 4.0 mi North 10.4 mph 20.7 mph 0.06 in Rain Heavy Rain
12:35 AM 41.5 °F 36.4 °F 38.5 °F 89% 30.26 in 10.0 mi NNE 8.1 mph - 0.08 in Rain Light Rain
12:55 AM 41.9 °F 36.9 °F 38.7 °F 88% 30.23 in 10.0 mi NE 8.1 mph - 0.08 in Rain Rain
1:15 AM 41.9 °F 36.9 °F 38.8 °F 89% 30.23 in 10.0 mi NE 8.1 mph - 0.01 in   Overcast
1:35 AM 41.9 °F 36.3 °F 39.2 °F 90% 30.23 in 10.0 mi NE 9.2 mph - 0.01 in   Overcast
1:55 AM 42.1 °F 38.4 °F 39.2 °F 90% 30.23 in 10.0 mi ENE 5.8 mph - 0.01 in   Overcast
2:15 AM 42.1 °F 37.7 °F 39.0 °F 89% 30.22 in 10.0 mi ENE 6.9 mph - N/A   Overcast
2:35 AM 42.1 °F 38.4 °F 38.8 °F 88% 30.22 in 10.0 mi ENE 5.8 mph - N/A   Overcast
2:55 AM 42.1 °F 37.7 °F 38.8 °F 88% 30.22 in 10.0 mi East 6.9 mph - N/A   Light Drizzle
3:15 AM 42.3 °F 38.6 °F 38.8 °F 88% 30.21 in 10.0 mi ENE 5.8 mph - N/A   Overcast
3:35 AM 42.3 °F 37.9 °F 38.8 °F 88% 30.21 in 10.0 mi NE 6.9 mph - N/A   Overcast
3:55 AM 42.3 °F 37.9 °F 38.8 °F 88% 30.22 in 10.0 mi NE 6.9 mph - N/A   Overcast
4:15 AM 42.3 °F 37.3 °F 38.8 °F 88% 30.22 in 10.0 mi NE 8.1 mph - N/A   Overcast
4:35 AM 42.4 °F 37.5 °F 38.8 °F 87% 30.21 in 10.0 mi East 8.1 mph - N/A   Overcast
4:55 AM 42.4 °F 37.5 °F 38.8 °F 87% 30.21 in 10.0 mi ENE 8.1 mph 16.1 mph N/A   Overcast
5:15 AM 42.6 °F 37.2 °F 38.8 °F 86% 30.21 in 10.0 mi East 9.2 mph - N/A   Overcast
5:35 AM 42.8 °F 38.0 °F 39.2 °F 87% 30.21 in 10.0 mi ENE 8.1 mph - N/A   Overcast
5:55 AM 42.8 °F 38.0 °F 39.2 °F 87% 30.22 in 10.0 mi ENE 8.1 mph - N/A   Overcast
6:15 AM 42.8 °F 39.3 °F 39.2 °F 87% 30.23 in 10.0 mi ENE 5.8 mph - N/A   Overcast
6:35 AM 42.8 °F 38.6 °F 39.4 °F 88% 30.24 in 10.0 mi NE 6.9 mph - N/A   Overcast
6:55 AM 42.8 °F 38.0 °F 39.4 °F 88% 30.24 in 10.0 mi ENE 8.1 mph - N/A   Overcast
7:15 AM 42.8 °F 37.5 °F 39.6 °F 88% 30.23 in 10.0 mi ENE 9.2 mph - N/A   Overcast
7:35 AM 42.8 °F 39.3 °F 39.7 °F 89% 30.23 in 10.0 mi East 5.8 mph - N/A   Overcast
7:55 AM 42.8 °F 37.5 °F 39.9 °F 90% 30.23 in 7.0 mi East 9.2 mph - N/A   Overcast
8:15 AM 43.0 °F 37.2 °F 40.1 °F 90% 30.23 in 10.0 mi East 10.4 mph - N/A   Overcast
8:35 AM 43.2 °F 39.0 °F 40.3 °F 90% 30.23 in 10.0 mi East 6.9 mph - N/A   Overcast
8:55 AM 43.7 °F 38.6 °F 40.6 °F 89% 30.23 in 7.0 mi East 9.2 mph - N/A   Overcast
9:15 AM 43.7 °F 38.6 °F 41.0 °F 90% 30.25 in 10.0 mi East 9.2 mph - N/A   Overcast
9:35 AM 43.9 °F 39.3 °F 41.0 °F 90% 30.25 in 7.0 mi East 8.1 mph - N/A   Overcast
9:55 AM 43.9 °F 39.3 °F 41.2 °F 90% 30.25 in 7.0 mi ENE 8.1 mph - N/A   Overcast
10:15 AM 44.1 °F 39.5 °F 41.2 °F 90% 30.25 in 10.0 mi East 8.1 mph - N/A   Overcast
10:35 AM 44.2 °F 39.2 °F 41.4 °F 90% 30.25 in 7.0 mi East 9.2 mph - N/A   Overcast
10:55 AM 44.6 °F 40.2 °F 41.9 °F 90% 30.24 in 5.0 mi East 8.1 mph - N/A   Overcast
11:15 AM 45.3 °F 40.1 °F 42.6 °F 90% 30.23 in 4.0 mi East 10.4 mph - N/A   Overcast
11:35 AM 45.9 °F 41.7 °F 43.0 °F 90% 30.23 in 10.0 mi East 8.1 mph - N/A   Overcast
11:55 AM 46.0 °F 41.4 °F 42.8 °F 88% 30.23 in 10.0 mi East 9.2 mph - N/A   Overcast
12:15 PM 46.4 °F 42.4 °F 42.8 °F 87% 30.22 in 10.0 mi East 8.1 mph - N/A   Overcast
12:35 PM 46.9 °F - 43.3 °F 87% 30.21 in 10.0 mi East 9.2 mph - N/A   Overcast
12:55 PM 47.3 °F - 43.5 °F 87% 30.20 in 10.0 mi East 9.2 mph - N/A   Overcast
1:15 PM 47.3 °F - 43.5 °F 87% 30.19 in 10.0 mi East 8.1 mph - N/A   Overcast
1:35 PM 47.5 °F - 43.5 °F 86% 30.18 in 10.0 mi East 9.2 mph - N/A   Overcast
1:55 PM 47.5 °F - 43.7 °F 87% 30.18 in 10.0 mi ENE 5.8 mph - N/A   Overcast
2:15 PM 47.1 °F - 43.3 °F 87% 30.18 in 10.0 mi East 6.9 mph - N/A   Overcast
2:35 PM 47.1 °F - 43.5 °F 87% 30.17 in 10.0 mi ENE 8.1 mph - N/A   Overcast
3:15 PM 46.4 °F 41.9 °F 42.8 °F 87% 30.16 in 10.0 mi ENE 9.2 mph - N/A   Overcast
3:35 PM 46.4 °F 42.4 °F 42.8 °F 87% 30.16 in 10.0 mi ENE 8.1 mph - N/A   Overcast
3:55 PM 46.4 °F 41.5 °F 42.8 °F 87% 30.16 in 10.0 mi ENE 10.4 mph - N/A   Overcast
4:15 PM 46.4 °F 42.4 °F 42.8 °F 87% 30.17 in 7.0 mi ENE 8.1 mph - N/A   Overcast
4:35 PM 46.0 °F 41.9 °F 42.3 °F 87% 30.17 in 7.0 mi ENE 8.1 mph - N/A   Overcast
5:15 PM 45.7 °F 40.2 °F 42.1 °F 87% 30.17 in 7.0 mi East 11.5 mph - N/A   Overcast
6:15 PM 45.0 °F 39.7 °F 41.9 °F 89% 30.17 in 7.0 mi ENE 10.4 mph - N/A   Overcast
6:35 PM 45.0 °F 41.2 °F 41.9 °F 89% 30.17 in 7.0 mi ENE 6.9 mph - N/A   Overcast
6:55 PM 45.0 °F 40.1 °F 41.9 °F 89% 30.17 in 7.0 mi ENE 9.2 mph - N/A   Overcast
7:15 PM 45.0 °F 40.1 °F 41.5 °F 88% 30.16 in 7.0 mi ENE 9.2 mph - N/A   Overcast
7:35 PM 45.1 °F 41.4 °F 41.5 °F 87% 30.16 in 7.0 mi East 6.9 mph - N/A   Overcast
7:55 PM 45.5 °F 41.3 °F 41.9 °F 87% 30.16 in 7.0 mi East 8.1 mph - N/A   Overcast
8:15 PM 45.5 °F 41.3 °F 41.9 °F 87% 30.16 in 7.0 mi East 8.1 mph - N/A   Overcast
8:35 PM 45.5 °F 41.3 °F 41.9 °F 87% 30.16 in 7.0 mi East 8.1 mph - N/A   Overcast
8:55 PM 45.1 °F 40.8 °F 41.5 °F 87% 30.15 in 7.0 mi East 8.1 mph - N/A   Overcast
9:15 PM 45.5 °F 41.3 °F 41.9 °F 87% 30.15 in 7.0 mi East 8.1 mph - N/A   Overcast
9:35 PM 45.0 °F 40.6 °F 41.5 °F 88% 30.14 in 7.0 mi ENE 8.1 mph - N/A   Overcast
9:55 PM 44.8 °F 41.6 °F 41.7 °F 89% 30.16 in 7.0 mi East 5.8 mph - N/A   Overcast
10:35 PM 44.2 °F 39.7 °F 41.9 °F 91% 30.16 in 5.0 mi East 8.1 mph - N/A   Overcast
10:55 PM 44.1 °F 39.0 °F 41.9 °F 92% 30.14 in 5.0 mi East 9.2 mph - N/A   Overcast
11:15 PM 44.2 °F 39.2 °F 41.9 °F 91% 30.14 in 7.0 mi East 9.2 mph - N/A   Overcast
11:35 PM 44.6 °F 39.2 °F 41.9 °F 90% 30.14 in 7.0 mi East 10.4 mph - N/A   Overcast
11:55 PM 44.6 °F 40.7 °F 41.9 °F 90% 30.14 in 7.0 mi East 6.9 mph - N/A   Overcast